GEFSSE_500_meanwind_108.txt.gz
Wind_Speed
5 5 5 5 4 3 3 2 2 2 2 2 3 3 4 4 4 4 4 4 4 4 4 3 4 4 4 4 4 4 4 4 4 4 5 5 5 5 6 6 6 6 7
6 6 7 6 5 4 3 2 2 2 2 1 2 2 3 3 3 3 2 2 3 3 2 2 2 2 2 3 3 3 3 3 3 3 3 3 3 4 4 4 5 5 6
8 8 8 8 7 6 4 4 3 3 2 2 2 2 2 2 2 1 1 1 1 1 1 1 1 1 1 1 1 1 2 2 2 2 2 2 2 2 3 3 4 4 4
10 10 10 9 8 7 6 5 4 4 3 3 2 2 2 2 1 1 1 1 1 1 1 1 1 1 1 1 1 1 1 1 1 0 0 1 1 1 2 2 3 3 3
12 11 11 11 9 8 7 6 6 5 4 4 3 3 2 2 2 2 2 2 2 3 3 2 2 2 2 2 2 2 2 1 1 1 1 1 1 1 0 1 1 2 2
13 13 12 12 11 10 9 8 7 6 5 5 5 4 3 3 3 3 3 3 3 4 4 4 4 4 4 4 4 4 3 3 2 2 2 2 1 1 1 1 1 1 1
14 14 14 13 13 11 10 10 9 8 7 6 6 5 5 4 4 4 4 4 5 5 5 5 5 6 6 5 6 6 5 5 4 4 3 3 3 2 2 1 2 2 1
14 15 15 15 14 13 12 11 10 10 9 8 7 6 6 6 5 5 5 5 6 6 6 7 7 6 7 7 7 7 7 6 6 5 5 4 4 3 3 3 3 3 3
16 17 16 16 15 14 13 12 12 11 10 9 9 8 8 7 7 7 6 7 7 7 7 8 8 8 8 8 9 9 8 8 7 7 7 6 6 5 5 4 4 4 4
17 18 18 17 16 16 14 13 13 13 12 11 10 10 9 9 8 7 8 8 8 8 8 8 8 9 10 10 10 10 10 9 9 8 8 8 8 7 7 7 6 5 6
18 18 18 18 17 17 16 14 14 13 12 11 10 10 9 8 8 9 9 9 9 9 8 9 9 9 10 10 11 10 10 10 10 9 9 9 10 9 9 9 8 8 8
20 19 19 18 18 17 16 15 14 13 13 12 11 11 10 9 9 9 9 9 9 9 9 9 8 8 9 10 11 11 11 11 10 9 9 10 10 11 11 10 10 10 10
20 21 20 19 18 17 15 15 15 15 14 13 12 11 10 9 8 8 9 9 9 9 9 8 7 8 8 8 10 10 11 11 11 10 10 10 11 11 12 12 12 12 13
21 22 21 19 18 16 16 17 17 16 14 13 11 10 10 9 9 8 8 8 8 7 6 6 6 7 7 8 8 9 10 11 11 11 11 12 12 12 12 12 12 13 13
21 21 20 20 17 17 17 17 17 15 13 12 11 10 10 10 9 8 8 7 6 6 6 6 6 6 6 6 7 8 9 10 10 10 11 12 13 13 13 13 12 13 15
21 20 20 20 18 17 17 17 17 15 13 11 10 10 10 9 8 7 6 6 5 5 6 6 6 5 5 5 5 6 8 9 10 10 11 11 12 13 13 14 14 14 15
21 22 21 20 19 18 17 16 15 15 13 12 11 10 9 8 7 7 6 6 6 6 6 6 5 5 4 4 5 6 7 7 9 9 10 11 12 13 14 14 14 15 15
20 21 21 20 19 18 16 16 15 15 13 12 11 9 8 7 7 6 5 5 5 5 5 5 4 4 4 5 5 6 7 7 9 10 11 11 12 13 14 14 15 15 16
18 19 19 19 18 17 17 16 15 14 13 12 10 8 6 5 4 4 3 3 3 3 4 4 4 4 5 5 5 6 7 8 9 10 11 12 13 14 14 15 15 16 17
19 19 19 18 18 17 16 15 13 12 11 9 7 6 4 4 3 2 2 2 3 3 4 5 5 5 5 6 7 7 8 8 9 10 11 12 13 13 14 15 16 17 17
18 18 17 17 17 16 15 13 12 11 9 7 6 5 4 4 3 1 1 2 3 4 5 6 6 6 6 7 7 8 8 8 9 10 10 11 12 13 14 15 15 16 17
16 16 16 16 16 16 14 13 12 11 9 7 6 5 4 3 2 1 1 2 3 4 5 5 6 7 8 8 8 8 8 9 10 10 11 12 12 13 15 15 16 16 17
14 15 16 16 16 16 15 13 12 11 9 7 6 5 4 3 2 2 1 2 3 4 5 6 7 8 8 8 9 9 10 10 11 11 12 12 13 13 14 15 16 17 18
13 14 16 15 15 15 14 14 13 11 9 7 6 5 5 4 3 3 2 2 3 4 5 7 8 9 9 9 10 10 11 12 12 12 13 13 14 14 15 16 16 17 18
10 12 13 15 14 14 13 12 11 10 8 7 7 6 5 5 4 3 3 3 4 6 6 8 9 10 10 10 11 11 12 13 14 14 14 14 14 15 16 17 17 18 19
9 10 11 13 13 12 12 11 10 10 9 8 7 7 6 5 5 5 5 5 6 7 8 9 10 11 11 12 12 13 14 14 15 15 15 16 16 16 17 18 18 19 20

GEFSSE_500_meanwind_114.txt.gz
Wind_Speed
2 2 3 4 4 4 3 3 2 2 2 3 3 3 2 2 2 2 3 3 3 3 3 3 3 3 3 4 4 4 4 5 5 5 6 6 6 6 7 8 8 9 9
4 4 4 4 4 4 3 2 1 1 2 2 2 2 2 2 2 2 2 3 3 3 2 2 2 2 2 3 3 3 3 4 4 4 4 5 5 5 6 7 7 8 8
5 5 5 5 5 4 4 3 1 1 1 2 2 2 2 2 3 3 3 3 3 3 3 3 2 2 2 2 2 2 2 3 3 3 4 4 4 4 5 6 6 7 7
6 6 6 7 6 5 5 4 3 1 2 2 2 3 3 3 3 3 4 4 4 4 4 4 3 3 2 1 1 1 1 2 2 2 3 3 3 3 4 4 5 5 6
7 7 7 8 8 7 6 5 4 3 2 3 3 3 4 4 4 4 4 5 5 5 5 5 5 4 3 3 2 1 1 0 1 1 2 2 2 2 2 3 3 4 5
8 8 9 9 9 9 8 7 6 4 4 4 4 4 5 5 5 5 6 6 6 6 6 6 6 6 5 5 4 3 2 2 1 0 1 0 1 1 2 2 2 3 3
10 10 10 10 10 10 10 9 7 6 5 5 5 5 6 6 6 7 7 7 7 7 7 7 7 7 6 6 5 5 4 3 3 2 2 2 1 1 1 1 2 2 2
12 12 11 12 12 11 11 10 9 7 7 6 6 6 7 7 7 8 8 8 8 8 8 8 8 7 7 7 6 6 5 5 4 4 3 3 3 3 2 2 2 2 2
13 13 14 14 13 13 12 12 10 9 8 8 7 7 8 8 9 9 9 9 9 9 9 9 8 8 8 8 8 7 6 6 5 5 5 4 4 4 4 3 3 3 2
13 15 15 16 15 15 14 12 11 11 10 9 8 9 8 9 10 9 9 9 9 10 10 9 9 9 9 9 8 7 7 7 6 6 6 5 5 5 5 5 4 4 3
14 15 15 15 16 16 15 13 12 11 11 10 9 9 10 10 10 10 10 9 10 10 10 10 10 10 10 9 8 8 8 7 7 7 7 6 6 6 6 6 6 5 5
17 17 16 17 16 16 15 14 14 12 12 11 10 10 10 9 9 10 9 9 10 9 9 9 10 9 9 8 8 8 8 8 8 9 8 7 6 6 6 7 7 7 6
18 18 18 19 19 18 16 15 15 14 12 11 11 10 10 10 10 10 9 8 8 8 8 8 8 8 8 7 7 7 8 9 9 9 9 8 7 7 7 7 7 8 8
18 19 19 20 19 18 17 16 15 14 13 11 11 11 10 10 10 9 8 7 7 6 6 6 7 7 7 7 6 6 6 7 8 9 9 8 8 8 8 8 8 8 9
18 19 19 19 19 19 18 17 16 15 14 13 12 11 11 10 8 7 7 7 6 5 5 5 6 7 7 7 6 6 6 6 7 8 8 8 8 9 8 9 9 9 9
15 17 17 19 20 19 18 17 16 15 14 13 12 10 9 8 7 7 6 5 5 4 4 4 4 5 6 6 5 5 5 5 6 6 7 7 8 8 9 9 10 10 9
14 15 17 19 20 19 19 18 16 14 13 12 11 10 8 8 7 6 5 4 3 3 3 3 4 4 4 4 4 5 5 5 5 6 6 7 8 9 9 9 10 10 10
14 16 17 17 20 19 19 17 15 14 13 12 11 10 9 7 6 5 4 3 3 2 2 2 2 2 3 4 4 4 4 5 4 5 6 7 8 8 8 9 10 10 11
14 17 16 17 18 18 17 15 15 14 13 12 10 9 8 7 5 5 5 4 3 3 2 1 1 1 2 3 3 3 3 3 4 5 5 6 7 8 8 8 9 10 10
12 15 16 18 19 18 17 16 15 14 13 12 10 9 8 7 6 6 5 4 3 3 2 0 0 1 1 2 2 2 3 3 4 4 5 5 6 7 8 9 9 10 10
9 13 16 18 19 19 18 17 15 14 14 13 10 10 10 8 7 6 5 4 4 3 2 1 1 1 1 2 2 2 3 3 4 4 5 5 6 6 7 8 9 10 10
7 11 15 17 18 18 17 17 16 15 14 13 11 11 10 9 7 6 5 5 5 4 2 2 1 1 2 2 3 3 3 3 4 5 5 5 6 6 6 7 8 9 9
7 10 13 15 17 17 17 17 15 14 14 13 12 11 11 9 8 7 6 5 5 4 3 1 1 1 2 2 3 3 3 4 4 5 5 5 6 6 6 7 7 8 9
6 10 12 13 15 16 17 17 16 14 14 14 13 13 12 10 9 8 6 5 5 4 3 1 0 1 2 3 3 4 4 4 5 5 6 6 7 7 7 7 8 9 10
6 9 10 13 13 15 16 16 16 16 16 15 14 13 12 11 10 8 6 6 5 4 3 2 1 2 3 3 4 4 4 5 5 6 6 7 7 7 8 8 9 10 11
5 7 9 12 13 13 14 16 17 17 16 16 15 14 12 11 10 8 7 7 6 5 3 2 2 3 3 4 5 5 5 6 6 7 7 7 8 9 9 10 10 11 12

GEFSSE_500_meanwind_120.txt.gz
Wind_Speed
3 3 3 4 5 5 7 8 8 8 8 7 7 7 7 7 7 7 8 7 7 7 7 7 7 6 6 6 6 6 6 6 7 7 8 8 8 9 9 9 9 9 10
4 4 4 5 5 5 6 7 7 7 7 6 6 6 6 6 6 7 7 7 7 7 7 7 7 6 6 6 5 6 6 6 6 6 7 7 7 7 8 8 8 9 9
5 5 5 6 5 5 6 6 6 6 6 5 5 5 5 6 6 6 6 7 7 7 7 6 6 6 6 5 5 5 5 5 5 5 5 6 6 6 7 7 7 8 8
7 7 6 6 6 6 6 6 6 6 5 4 4 4 5 5 5 6 6 7 7 7 7 6 6 6 5 5 4 4 4 4 4 4 4 4 4 5 5 6 6 7 7
8 8 8 8 7 7 6 6 5 5 4 3 3 4 4 5 5 6 7 7 7 7 6 6 6 5 5 4 4 3 3 3 3 3 3 3 3 3 4 5 5 6 6
8 9 9 9 8 8 7 7 6 5 3 2 2 3 3 4 5 6 7 7 7 7 6 6 6 5 5 4 4 3 2 2 2 2 2 2 2 2 3 4 4 4 5
9 10 11 10 10 9 8 8 7 5 3 2 1 1 2 4 5 6 7 7 7 7 7 6 6 6 5 4 3 3 2 1 1 1 1 1 1 1 2 2 3 3 3
11 11 11 11 11 10 10 9 7 6 4 3 1 1 2 3 5 6 7 7 7 8 7 6 6 6 5 5 4 3 2 1 1 1 1 0 0 1 0 1 2 2 2
12 13 13 13 13 12 11 10 8 7 6 4 3 2 3 3 5 6 7 7 7 8 7 6 6 6 5 5 5 4 3 2 2 1 2 2 1 1 2 2 1 2 2
13 14 14 14 14 13 12 11 10 8 7 6 5 4 4 4 5 5 6 7 8 8 7 6 6 6 6 5 5 4 3 3 3 2 2 2 2 2 2 3 3 3 3
12 13 15 15 15 14 14 12 11 10 9 8 7 6 5 5 6 6 7 7 8 7 7 6 6 6 5 5 5 4 4 4 3 3 3 3 3 3 3 3 4 4 4
13 15 16 17 16 15 15 14 12 11 10 9 8 7 7 7 6 6 7 7 7 6 6 6 5 5 5 5 5 5 4 4 4 4 4 4 4 4 4 4 5 5 6
14 16 17 18 18 17 17 16 14 12 11 11 10 9 8 7 6 6 6 6 6 6 5 5 4 4 4 4 4 4 4 4 4 4 4 5 5 4 4 5 5 6 6
15 17 18 18 18 18 18 17 16 14 13 12 10 9 8 8 6 6 6 5 5 5 5 4 3 3 4 4 4 4 4 4 3 4 4 5 5 6 6 6 6 7 7
15 17 18 18 19 19 19 18 17 16 15 13 11 10 9 8 7 6 6 6 5 5 4 3 3 3 3 4 3 3 4 4 4 4 4 4 5 6 6 7 7 7 8
15 17 18 18 18 20 20 20 18 18 16 13 12 10 10 9 8 7 7 6 5 3 3 3 3 3 3 4 4 3 4 4 4 5 5 4 5 5 6 6 7 8 9
13 14 18 20 20 20 21 20 19 17 16 14 13 11 10 9 8 7 6 6 4 3 3 3 3 3 3 3 3 3 3 4 4 4 5 4 5 5 6 6 7 8 9
11 13 16 19 19 21 21 20 20 18 16 15 13 11 10 9 8 8 7 6 5 4 3 3 3 2 2 2 2 2 2 2 2 3 4 4 4 5 5 6 6 7 9
11 13 15 19 20 21 21 21 20 18 16 15 14 12 10 9 8 8 8 7 5 4 4 3 2 2 2 1 1 1 1 1 1 2 2 3 3 4 5 5 6 7 8
10 13 15 19 20 21 21 20 20 18 17 16 15 12 11 10 9 8 8 7 6 5 4 3 2 2 1 1 1 0 0 1 1 1 1 2 3 4 5 6 6 7 8
9 12 16 19 20 21 20 21 20 18 18 16 15 13 11 11 10 9 8 7 6 5 4 3 2 2 2 1 1 1 0 1 1 1 2 2 2 3 4 5 6 7 8
9 12 15 18 19 21 20 21 20 18 19 18 16 15 13 12 11 10 9 8 7 5 4 4 3 2 2 1 1 1 1 1 2 3 3 3 3 3 4 4 5 5 6
8 11 15 16 18 20 21 22 21 19 20 18 16 16 14 13 13 11 10 9 7 6 5 4 3 3 2 2 1 2 2 2 2 3 3 3 3 4 4 5 6 6 7
7 9 12 16 17 19 21 21 20 20 20 20 18 16 16 15 14 12 11 10 8 7 5 5 4 3 3 2 2 3 3 3 3 4 4 5 5 5 6 6 7 7 8
6 8 10 15 18 21 21 21 21 20 20 20 19 18 17 16 14 13 12 11 9 8 7 6 5 5 4 4 3 4 4 5 5 5 6 6 7 7 7 7 8 8 9
5 6 9 14 17 18 20 21 21 20 19 20 19 19 18 16 15 14 13 11 10 8 8 7 6 6 5 5 5 5 5 6 7 7 7 8 8 9 9 9 10 10 11

GEFSSE_500_meanwind_126.txt.gz
Wind_Speed
7 6 7 6 6 6 7 8 9 10 11 11 11 11 11 11 11 11 10 10 9 8 8 7 7 7 7 7 6 6 6 7 7 7 7 7 7 7 7 7 7 7 8
7 7 7 7 6 6 6 7 9 10 10 11 10 10 10 10 10 10 9 9 8 8 7 7 7 7 6 6 6 6 6 6 6 6 6 6 6 7 7 7 6 7 7
7 7 7 7 7 7 7 8 8 9 10 10 10 10 9 9 9 9 8 8 8 7 7 7 6 6 6 5 5 5 5 5 5 5 5 5 6 6 6 6 6 6 6
8 8 8 8 8 8 7 8 8 9 9 9 9 9 9 8 8 8 7 7 7 6 6 6 6 6 5 5 5 4 5 5 5 4 5 5 5 5 5 5 5 5 5
8 8 9 9 9 9 8 8 9 9 9 9 9 8 8 7 7 6 6 6 6 5 5 5 5 5 5 4 4 4 4 4 4 4 4 4 4 4 5 5 5 5 5
8 9 10 10 10 10 9 9 9 9 9 8 8 8 7 7 6 6 5 5 5 5 4 4 4 4 4 3 3 3 4 4 4 4 4 3 4 4 4 4 4 4 4
9 10 11 11 11 11 11 10 10 10 9 8 8 7 6 6 5 5 5 4 4 4 3 3 3 3 3 2 2 2 3 4 4 4 4 4 4 4 4 4 4 4 4
10 10 11 13 13 13 12 12 11 10 9 8 8 7 5 5 4 4 4 3 2 2 2 2 2 2 2 2 2 2 3 4 4 4 4 4 4 4 4 5 5 4 4
10 11 12 13 14 14 14 13 12 11 10 9 8 7 5 4 4 3 2 2 2 1 1 1 1 2 2 2 2 3 4 4 4 4 4 4 5 5 5 5 5 5 5
10 12 13 14 15 15 15 15 14 13 12 10 9 7 6 4 3 3 2 1 0 0 0 1 1 2 2 2 3 3 4 4 4 5 5 5 6 6 5 5 5 5 6
11 13 14 15 16 16 17 16 15 14 13 12 10 8 7 5 4 3 2 1 0 0 1 1 1 2 2 2 3 3 4 4 4 5 5 5 6 6 6 6 6 6 6
12 13 15 17 17 18 18 18 17 15 14 13 11 9 8 6 5 4 3 2 1 1 1 1 1 1 1 2 2 2 3 4 4 5 5 5 6 6 7 7 7 7 7
12 14 16 18 18 19 20 20 19 17 16 15 13 11 9 8 6 6 4 3 2 1 1 1 1 1 1 1 1 2 2 3 4 5 5 5 6 6 6 7 8 8 8
13 14 15 18 20 20 20 21 20 19 17 15 14 12 11 9 8 7 6 4 3 1 1 1 1 1 0 1 1 1 2 3 4 5 5 5 6 6 6 6 7 8 9
14 15 16 18 20 21 21 22 21 20 19 17 15 14 12 10 9 8 6 5 4 3 2 1 1 1 1 1 1 2 2 3 4 4 4 5 5 6 6 6 7 8 9
15 17 18 20 22 23 23 23 22 21 20 18 16 14 12 11 9 8 7 5 5 4 3 2 1 1 1 1 2 2 2 3 4 5 5 5 5 5 6 6 8 8 8
14 16 19 21 23 24 24 24 22 22 21 19 17 15 13 11 10 9 8 6 5 4 4 3 2 2 2 2 2 3 3 3 4 5 5 6 5 5 5 5 6 7 8
14 15 18 20 23 25 25 26 24 22 21 20 18 16 14 12 11 10 9 7 6 5 5 3 2 2 2 2 2 2 2 2 3 4 5 5 5 5 5 5 6 6 6
14 15 16 18 21 23 25 26 25 23 22 21 19 17 15 13 11 10 10 8 7 6 5 4 3 2 2 2 1 1 1 2 2 3 3 4 5 5 5 5 6 6 6
12 14 15 16 19 23 24 26 25 24 23 21 20 17 15 14 12 11 10 9 8 7 6 5 3 2 2 2 1 1 1 2 2 2 3 3 4 4 4 5 5 6 6
12 13 14 16 18 21 23 24 24 23 22 21 20 18 16 14 13 12 11 10 9 8 6 5 4 3 2 2 2 2 2 2 2 3 3 3 3 3 3 4 4 5 6
10 11 12 15 18 20 22 23 22 23 24 22 20 18 17 16 14 13 12 11 10 8 7 6 5 4 3 3 2 2 2 2 2 3 3 3 3 3 4 4 5 6 6
10 11 11 12 16 20 21 22 23 22 23 22 19 18 17 16 15 14 13 12 11 9 8 7 6 5 5 4 3 3 3 2 3 3 3 3 4 4 5 6 6 7 7
10 10 10 11 14 18 20 21 22 23 22 22 21 20 18 17 16 15 14 13 12 11 9 8 7 6 5 5 4 3 3 3 3 4 4 4 5 6 6 7 7 7 8
10 9 10 12 13 16 19 20 23 23 22 22 21 20 19 18 18 16 15 14 13 12 10 9 7 6 5 5 4 4 4 4 5 5 5 6 6 6 7 8 8 9 9
8 7 8 11 14 17 19 19 22 22 22 22 21 20 20 20 19 18 17 15 14 13 11 10 9 8 7 6 6 6 6 6 6 7 7 7 8 8 9 9 10 10 11